Location: Dampvalley
(47.9094°N, 6.1967°E)
Time: 10:55:34
(UTC+00:00)

X-37B - Visible Passes

Search period start: 17 September 2021 00:00
Search period end: 27 September 2021 00:00
Orbit: 381 x 393 km, 45.0° (Epoch: 29 August)

Date Brightness Start Highest point End Pass type
(mag) Time Alt. Az. Time Alt. Az. Time Alt. Az.
21 Sep 3.3 04:19:48 10° S 04:21:28 13° SSE 04:23:07 10° ESE visible
23 Sep 2.6 03:59:30 14° SSW 04:01:05 20° SSE 04:03:31 10° ESE visible
24 Sep 3.4 03:03:52 12° SE 03:03:52 12° SE 03:04:35 10° ESE visible
24 Sep 1.6 04:36:10 11° SW 04:39:01 37° SSE 04:42:00 10° E visible
25 Sep 1.9 03:40:29 28° S 03:40:46 28° SSE 03:43:33 10° E visible
26 Sep 3.8 02:44:46 11° ESE 02:44:46 11° ESE 02:44:59 10° ESE visible
26 Sep 1.2 04:17:04 22° WSW 04:18:46 46° S 04:21:50 10° E visible
